Regional Weather Roundup
Issued by NWS

Home | Current Version | Previous Version | Text Only | Print | Product List | Glossary On
Versions: 1 2 3 4 5 6 7 8 9 10 11 12 13 14 15 16 17 18 19 20 21 22 23 24 25 26 27 28 29 30 31 32 33 34 35 36 37 38 39 40 41 42 43 44 45 46 47 48 49 50
000
ASUS46 KPQR 200110
RWROR

OREGON REGIONAL WEATHER ROUNDUP
NATIONAL WEATHER SERVICE PORTLAND OR
500 PM PST MON FEB 19 2018

NOTE: "FAIR" INDICATES FEW OR NO CLOUDS BELOW 12,000 FEET WITH
NO SIGNIFICANT WEATHER AND/OR OBSTRUCTIONS TO VISIBILITY.

ORZ001>013-200200-
NORTHWEST OREGON


CITY           SKY/WX    TMP DP  RH WIND       PRES   REMARKS
ASTORIA        PTCLDY    39  21  48 NW7       30.22F
TILLAMOOK      PTCLDY    37  25  60 NW12      30.23S WCI  30
NEWPORT        PTCLDY    37  30  75 N9        30.25S
PORTLAND       MOCLDY    39  20  46 NW7       30.23S
VANCOUVER WA   MOCLDY    38  19  46 NW6       30.22S
SCAPPOOSE      MOCLDY    36  20  52 CALM      30.22S
HILLSBORO      MOCLDY    36  24  62 NE3       30.21S
AURORA         MOCLDY    38  22  52 N7        30.23R
MCMINNVILLE    MOCLDY    38  23  55 CALM      30.21S
SALEM          MOCLDY    37  22  54 NE8       30.21R
CORVALLIS      CLOUDY    39  24  55 N3        30.22S
EUGENE         MOCLDY    38  27  64 N6        30.21S
$$

ORZ021-028-200200-
SOUTHWEST OREGON


CITY           SKY/WX    TMP DP  RH WIND       PRES   REMARKS
NORTH BEND     PTCLDY    42  29  59 N14       30.25R
BROOKINGS      PTCLDY    41  26  55 N10G16    30.19R
ROSEBURG       CLOUDY    38  29  70 N8        30.21R
SEXTON SUMMIT  FLURRIES  24  22  91 CALM      30.03R
GRANTS PASS    CLOUDY    37  23  56 NW8       30.18R
MEDFORD        MOCLDY    38  19  46 W9        30.14R
$$

ORZ014>016-041-200200-
COLUMBIA GORGE


CITY           SKY/WX    TMP DP  RH WIND       PRES   REMARKS
TROUTDALE      PTCLDY    38  22  52 NW7       30.22S
HOOD RIVER     MOCLDY    32  19  59 CALM      30.19S
THE DALLES     PTCLDY    33  12  41 E5        30.21F
$$

ORZ029>031-041-044-049-050-061>064-502-503-505>511-200200-
EASTERN OREGON


CITY           SKY/WX    TMP DP  RH WIND       PRES   REMARKS
MADRAS         NOT AVBL
REDMOND        PTCLDY    24  11  57 N6        30.05R
BEND           PTCLDY    21  10  63 CALM      30.04S
PRINEVILLE     PTCLDY    23   9  54 N10       30.04S WCI  12
KLAMATH FALLS  MOCLDY    26  16  65 W14       29.94R WCI  14
LAKEVIEW       MOCLDY    21   8  57 N10       29.89S WCI  10
HERMISTON      PTCLDY    28  10  46 SW9       30.19F
PENDLETON      MOCLDY    23   8  52 SW9       30.14S
JOHN DAY       PTCLDY    19   1  47 NW15      29.98R WCI   4
MEACHAM        CLOUDY    10   4  76 VRB3      29.98R
LA GRANDE      CLOUDY    16   5  62 NW12      30.06R WCI   3
BAKER CITY     PTCLDY    16   0  49 NW24G31   29.96R WCI  -2
BURNS          MOCLDY    17   2  51 NW21      29.90S WCI   0
ROME             N/A     24   0  35 NW14      29.85R WCI  12
ONTARIO        PTCLDY    24   3  40 NW28G39   29.95R WCI   7
$$



USA.gov is the U.S. government's official web portal to all federal, state and local government web resources and services.